sat.trackr.live / text

‹ back to catalog

ICEYE-X41

NORAD 62700 · 2025-009CV

PAYLOAD ACTIVE UNKNOWN

§ Identity

Operator
Country
US
Launch date
2025-01-14
Launch site
AFWTR
Launch vehicle
Mass (kg)
RCS (m²)

External: N2YO · Heavens-Above · Gunter

§ Orbital elements

Epoch: 2026-09-22T17:24:02.305152Z

Period
96.18 min
Inclination
97.7017°
Eccentricity
0.0002913
Mean motion
14.97249744 rev/d
Perigee alt
573.4 km
Apogee alt
577.4 km
Semi-major
6,953.5 km
B*
1.1876e-4
RAAN
343.8311°
Arg perigee
71.4963°
Mean anomaly
288.6575°
Rev number
9,200

§ Raw data

ICEYE-X411 62700U 25009CV  26265.72502668  .00001317  00000+0  11876-3 0  99952 62700  97.7017 343.8311 0002913  71.4963 288.6575 14.97249744 92009

JSON: /api/v1/satellites/62700 · /tle

For live sub-satellite position, see the globe view (requires WebGL).

§ Visibility from observer

Set your observer location to see the next 7 days of passes ≥ 10°. The values pass through the URL so the page stays shareable.

No JS? Fill the form by hand. The geolocation button needs JavaScript.

§ Radio — SatNOGS DB

ModeDescriptionDownlinkUplink
BPSK S-band telemetry 2.264 GHz

1 transmitter · refreshed weekly from db.satnogs.org